www.pogodaiklimat.ru

Архив погоды в Чите (Забайкальский край, Россия)

Время
(UTC), дата
06 18.01
09 18.01
12 18.01
15 18.01
18 18.01
21 18.01
00 19.01
03 19.01
06 19.01
09 19.01
12 19.01
15 19.01
18 19.01
21 19.01
00 20.01
03 20.01
06 20.01
09 20.01
12 20.01
15 20.01
18 20.01
21 20.01
00 21.01
03 21.01
06 21.01
09 21.01
12 21.01
15 21.01
18 21.01
21 21.01
00 22.01
03 22.01
06 22.01
09 22.01
12 22.01
15 22.01
18 22.01
21 22.01
00 23.01
03 23.01
06 23.01
09 23.01
12 23.01
15 23.01
18 23.01
21 23.01
00 24.01
03 24.01
06 24.01
09 24.01
12 24.01
15 24.01
18 24.01
21 24.01
00 25.01
03 25.01
Ветер
(напр.,м/с)
Видим. Явления Облачность Т
(С)
Тd
(С)
f
(%)
Тe
(С)
Тes
(С)
Комфортность P
(гПа)
Po
(гПа)
Тmin
(С)
Tmax
(С)
R
(мм)
R24
(мм)
S
(см)
штиль 0 2000 м мгла 3/0
[Ci fib]
-20.2 -27.0 55 -20 -18 прохладно 1040.0 950.7
штиль 0 20 км дым ясно -21.6 -27.3 60 -22 -22 прохладно 1041.0 951.1
В 2 6000 м мгла ясно -26.7 -29.5 77 -34 -34 опасность
обморожения
1043.8 951.9 -18.5
СВ 1 2000 м мгла ясно -29.3 -32.6 73 -33 -33 опасность
обморожения
1045.3 952.4
СВ 1 1200 м мгла ясно -31.5 -34.9 72 -36 -36 опасность
обморожения
1046.1 952.3
СВ 1 1200 м мгла ясно -33.1 -36.9 69 -38 -38 опасность
обморожения
1045.2 950.9
СЗ 1 2000 м мгла 10/0
[Cs]
-30.4 -34.0 71 -35 -35 опасность
обморожения
1043.6 950.4 -33.2 4
штиль 0 1000 м мгла 10/0
[Cs]
-26.0 -29.2 74 -26 -24 очень
холодно
1040.9 949.5
С 1 20 км дым 10/0
[Ci fib]
-20.1 -26.6 56 -23 -22 очень
холодно
1036.4 947.4
В 1 20 км дым 8/0
[Ci fib]
-19.6 -25.2 61 -23 -23 холодно 1035.5 946.8
В 1 50 км ясно -24.6 -27.4 77 -28 -28 очень
холодно
1037.5 946.9 -18.6
СВ 1 50 км ясно -26.7 -29.7 76 -30 -30 очень
холодно
1038.5 947.0
В 1 20 км дым ясно -28.2 -31.2 75 -32 -32 опасность
обморожения
1039.3 947.2
штиль 0 15 км слаб. снег 10/0
[Ac As]
-27.0 -30.1 75 -27 -27 холодно 1038.6 947.1
З 1 15 км слаб. снег 10/0
[As op]
-24.1 -27.0 77 -28 -28 по сезону 1037.5 947.1 -29.3 0.0 5
СЗ 1 2000 м слаб. снег 10/0
[As op]
-21.0 -24.1 76 -24 -24 по сезону 1035.9 946.7
СЗ 1 2000 м в посл. час снег 10/0
[Ac As]
-17.4 -21.0 73 -20 -20 по сезону 1033.4 945.6
штиль 0 3000 м слаб. снег 10/0
[Ac As]
-16.6 -19.1 81 -17 -17 по сезону 1033.9 946.3
В 1 3000 м слаб. снег 10/0
[Ac As]
-17.3 -19.2 85 -20 -20 по сезону 1034.9 947.0 -16.1 1
Ю 1 3000 м слаб. снег 10/0
[Ac As]
-18.0 -20.0 84 -21 -21 по сезону 1035.5 947.3
В 1 3000 м слаб. снег 10/0
[Ac As Cs]
-18.9 -21.3 81 -22 -22 по сезону 1036.5 947.9
штиль 0 3000 м слаб. снег 10/0
[Ac As]
-19.1 -21.3 83 -19 -19 тепло 1036.6 947.9
В 1 3000 м слаб. снег 10/0
[Ac As]
-20.7 -23.1 81 -24 -24 по сезону 1037.9 948.6 -21.2 0.5 7
З 1 2000 м мгла {снег} 10/0
[Ac lent Ci fib]
-18.8 -22.5 73 -22 -21 по сезону 1037.4 948.8
З 1 4000 м мгла {снег} 4/0
[Ci fib]
-13.3 -19.2 61 -16 -14 по сезону 1034.3 947.7
В 2 20 км дым 3/0
[Ci fib]
-16.8 -19.5 80 -22 -22 по сезону 1035.4 947.6
В 1 10 км дым 1/0
[Ci fib]
-21.2 -23.4 82 -24 -24 по сезону 1037.4 947.9 -12.5
штиль 0 6000 м мгла ясно -25.3 -27.7 80 -25 -25 по сезону 1039.2 948.2
В 1 6000 м ясно -26.0 -28.6 79 -30 -30 по сезону 1040.2 948.8
штиль 0 10 км дым 1/0
[Ci fib]
-29.2 -32.6 72 -29 -29 по сезону 1041.8 949.2 -12.5 0.0
С 1 20 км дым 6/0
[Ci fib]
-30.7 -34.2 71 -35 -35 опасность
обморожения
1043.4 950.1 -30.7 7
штиль 0 2000 м мгла 10/0
[Ac trans Ci fib]
-26.4 -29.3 76 -26 -25 по сезону 1042.8 951.1 -30.8
СЗ 1 2000 м мгла 4/0
[Ci fib]
-18.6 -23.8 64 -21 -20 по сезону 1038.3 949.7
В 1 20 км дым 4/0
[Ci fib]
-20.3 -23.7 74 -23 -23 по сезону 1039.3 950.0
В 2 20 км дым 3/0
[Ci fib]
-24.7 -27.5 77 -31 -31 опасность
обморожения
1041.2 950.2 -17.9
штиль 0 3000 м мгла 3/0
[Ci fib]
-29.1 -32.2 74 -29 -29 по сезону 1043.4 950.7
штиль 0 3000 м мгла 4/0
[Ci fib]
-29.5 -32.8 73 -30 -30 по сезону 1043.7 950.8
штиль 0 3000 м мгла 6/0
[Ci fib]
-32.1 -35.6 71 -32 -32 опасность
обморожения
1044.1 950.2
С 1 3000 м мгла 6/0
[Ci fib]
-30.6 -34.0 72 -35 -35 опасность
обморожения
1043.3 950.1 -32.2 6
штиль 0 2000 м мгла 10/0
[Ac trans Cs]
-25.6 -28.8 74 -26 -24 по сезону 1040.8 949.6
С 1 2000 м мгла 10/0
[Ac trans Ci fib]
-17.2 -22.7 62 -20 -19 по сезону 1035.4 947.4
С 1 3000 м мгла 10/0
[Ac As Ci fib]
-17.3 -21.4 70 -20 -20 по сезону 1034.4 946.5
штиль 0 2500 м мгла 10/0
[Ac As Ci fib]
-16.4 -19.0 80 -16 -16 тепло 1033.7 946.2 -15.7
В 1 1500 м слаб. снег 10/0
[Ac As]
-17.0 -19.0 84 -20 -20 по сезону 1033.5 945.8
В 1 2000 м слаб. снег 10/0
[Ac As Cs]
-18.4 -20.7 82 -21 -21 по сезону 1033.6 945.5
В 1 2000 м слаб. снег 10/0
[Ac As]
-20.2 -22.5 82 -23 -23 по сезону 1033.2 944.5
штиль 0 2000 м слаб. снег 10/0
[Cs]
-20.0 -22.4 81 -20 -20 тепло 1032.8 944.2 -20.9 0.4 6
штиль 0 2000 м слаб. снег 10/0
[Ac As]
-18.7 -21.7 77 -19 -18 по сезону 1032.3 944.2 -20.9
З 1 2000 м слаб. снег 10/0
[Ac lent Cs]
-15.1 -19.0 72 -18 -17 по сезону 1029.7 942.9
ЮЗ 1 4000 м слаб. снег 10/0
[Cs]
-16.2 -19.0 79 -19 -19 по сезону 1029.5 942.4
В 2 6000 м слаб. снег 10/0
[Ac As]
-18.8 -21.2 81 -24 -24 по сезону 1030.6 942.6 -14.7 0.7
штиль 0 6000 м слаб. снег 10/0
[Ac As]
-20.3 -22.6 82 -20 -20 по сезону 1031.2 942.6
штиль 0 3000 м слаб. снег 8/0
[Cs]
-22.6 -24.9 81 -23 -23 по сезону 1032.2 942.8
штиль 0 4000 м слаб. снег 10/0
[Cs]
-24.1 -26.8 78 -24 -24 по сезону 1032.5 942.5
СВ 1 4000 м слаб. снег 10/0
[Cs]
-26.5 -29.4 76 -30 -30 по сезону 1034.1 943.2 -26.7 0.6 7
штиль 0 2000 м слаб. снег 10/0
[Cs]
-24.5 -27.5 76 -25 -23 по сезону 1033.9 943.7 -27.9
Местоположение метеостанции Чита (Забайкальский край, Россия): широта 52.08 долгота 113.40 высота над уровнем моря 671 м.
В архиве по умолчанию представлена погода в Чите за последнюю неделю. Архивные данные за месяц целиком и за предыдущие месяцы, начиная с января 2011 года, Вы можете получить, выбрав интересующий диапазон дат из раскрывающегося списка и нажав кнопку "Найти!".
*Определитесь, кто Вы:
Внимание! Время в таблицах - всемирное. Для получения местного времени необходимо прибавить поправку, которая равна 9 ч.
Смотрите также архив погоды в соседних городах и на ближайших метеорологических станциях:
Партнеры нашего сайта:      
Пояснения к столбцам:
  • Ветер - указаны скорость ветра в м/с - средняя за 10 мин, порывы в срок и между сроками (в фигурных скобках) и направление, откуда дует ветер: С - северный,
  • СВ - северо-восточный, В - восточный, ЮВ - юго-восточный, Ю - южный, ЮЗ - юго-западный, З - западный, СЗ - северо-западный.
  • Видимость - горизонтальная дальность видимости в метрах или километрах. При видимости от 1 до 10 км при отсутствии осадков обычно наблюдается дымка, при ухудшении видимости до 1 км и менее - туман. В сухую погоду видимость может ухудшаться дымом, пылью или мглою.
  • Явления - указаны атмосферные явления, наблюдавшиеся в срок или в последний час перед сроком; фигурными скобками обозначены явления, наблюдавшиеся между сроками (за 1-3 часа до срока); квадратными скобками обозначены град или гололедные отложения с указанием их диаметра в мм.
  • Облачность - указаны через наклонную черту общая и нижняя облачность в баллах и высота нижней границы облаков в метрах; квадратными скобками обозначены формы облаков: Ci - перистые, Cs - перисто-слоистые, Cc - перисто-кучевые, Ac - высококучевые, As - высокослоистые, Sc - слоисто-кучевые, Ns - слоисто-дождевые, Cu - кучевые, Cb - кучево-дождевые. Подробнее классификацию облаков см. в Атласе облаков (PDF).
  • T - Температура воздуха - температура, измеренная на высоте 2 м над землей.
  • Td - Температура точки росы - температура, при понижении до которой содержащийся в воздухе водяной пар достигнет насыщения.
  • f - Относительная влажность воздуха - влажноcть воздуха, измеренная на высоте 2 м над землей.
  • Te - Эффективная температура - температура, которую ощущает одетый по сезону человек в тени. Характеристика душности погоды. При расчете учитывается влияние влажности воздуха и скорости ветра на теплоощущения человека.
  • Tes - Эффективная температура на солнце - температура, которую ощущает человек, с поправкой на солнечный нагрев. Характеристика знойности погоды. Зависит от высоты солнца над горизонтом, облачности и скорости ветра. Ночью, в пасмурную погоду, а также при ветре 12 м/с и более поправка равна нулю.
  • P - Атмосферное давление - приведенное к уровню моря атмосферное давление.
  • Po - Атмосферное давление - измеренное на уровне метеостанции атмосферное давление.
  • Tmin - Минимальная температура - минимум температуры воздуха на высоте 2 м над землей.
  • Tmax - Максимальная температура - максимум температуры воздуха на высоте 2 м над землей.
  • R - Количество осадков - Количество выпавших осадков за период времени, мм. При наведении курсора мыши на число - период времени, за который выпало указанное количество осадков.
  • R24 - Количество осадков - Количество выпавших осадков за 24 часа, мм.
  • S - Снежный покров - Высота снежного покрова, см. При наведении курсора мыши на число - состояние снежного покрова и степень покрытия местности в баллах.